Location: McFarlands Corners
(41.4117°N, 81.3382°W)
Time: 12:16:14
(UTC+00:00)

Tiros 1 - Pass Details

Date: 25 February 2026
Orbit: 618 x 650 km, 48.4° (Epoch: 16 March)

Event Time Altitude Azimuth Distance (km) Brightness Sun altitude
Rises 14:00:21 0° 285° (WNW) 2,920 9.9 19.1°
Reaches altitude 10° 14:02:52 10° 295° (WNW) 2,006 9.2 19.5°
Maximum altitude 14:07:04 34° 0° (N) 1,041 8.1 20.2°
Drops below altitude 10° 14:11:14 10° 66° (ENE) 1,990 10.2 20.8°
Sets 14:13:43 0° 76° (ENE) 2,892 11.1 21.2°
